Vertical_Velocity
-3 -2 -2 -4 -3 -3 -2 -0 -0 -2 -1 -2 -0 -0 -1 -1 0 -0 1 -1 -1 -2 2 3 -0 -0 -3 -0 -1 -0 -2 4 15 -16 -1 -5 8 3 3 0 -1 2 5
-1 -1 -1 0 -2 -3 -1 -2 -1 -2 -2 -1 -2 -0 -0 -2 -2 -1 -0 1 -1 -2 -0 2 0 1 -1 2 3 -2 -2 2 1 6 1 -9 7 3 1 1 -2 5 1
0 0 -2 -4 -3 -2 -1 -0 -2 -1 -2 -1 1 -1 -0 -0 -3 -1 -0 1 -0 -0 -1 0 1 0 -1 -1 1 -0 -2 -1 2 3 -0 -1 12 2 -2 0 0 2 2
-2 -3 -2 -2 -2 -2 -2 -1 -1 -1 -2 -2 1 -1 -0 -1 -1 -0 -1 -1 0 -1 -1 -0 0 0 0 -0 1 1 -2 -3 -2 0 -4 6 0 3 -2 6 -1 1 -1
-2 -2 -2 -2 -1 -2 -2 -2 -0 0 -1 -1 -3 -0 -2 -2 0 -1 1 0 0 -1 -1 -1 -0 1 -1 1 1 1 1 -0 1 1 2 7 3 -1 -5 4 -2 -1 0
-2 -3 -3 -1 -2 -4 -2 -1 -0 -1 -0 0 -1 1 -4 -1 2 1 5 1 0 1 -1 -1 -1 1 -0 0 -1 1 8 -2 -1 2 2 1 0 0 2 -2 3 -2 -2
-2 -2 -1 -2 -3 -1 -2 -2 -1 -2 -1 1 -1 1 -2 -2 1 1 0 3 1 0 2 -1 0 -3 0 1 -1 -4 -3 0 1 1 -2 -3 2 2 7 4 -2 2 -2
-4 -0 -0 -0 -3 -2 -2 -1 -1 -1 -1 -2 -2 1 -3 -1 0 1 2 3 -1 -1 -0 2 -1 1 -2 0 1 -1 -3 -3 -3 1 -7 -4 -7 2 0 7 3 4 5
-2 -2 -4 0 -3 -4 -2 -2 -3 -4 -0 -1 -0 -3 -1 -1 1 -0 6 3 -0 -3 -1 -0 2 0 -1 -1 3 -0 -3 -6 -3 1 -2 1 -5 10 11 9 5 6 5
-1 -1 -1 -0 1 -3 1 -3 -4 2 -2 -2 -2 1 1 -2 3 0 4 3 -0 -1 -1 -3 2 1 -0 -1 1 3 -1 -7 -1 -2 -5 -4 -2 3 3 3 10 1 1
-3 -2 -1 2 0 -1 -3 1 -2 -2 -0 -1 -1 -1 -1 1 -3 -0 2 5 2 -0 -1 -3 -3 -1 -0 2 6 3 -6 1 -1 2 -1 -1 1 1 3 2 3 6 -5
-4 1 -1 -0 -2 -2 -1 -4 0 2 -1 -1 -2 -4 -2 -2 1 -1 1 3 1 3 1 -1 -4 -0 0 -0 2 1 2 3 1 1 0 -1 0 -1 -2 2 2 -1 8
-2 1 -3 -2 -1 -2 -2 -4 -4 3 1 -3 -0 -3 -5 -3 -3 1 0 2 1 2 1 -1 1 1 2 2 0 -0 4 6 1 2 -2 -1 3 1 2 -0 9 9 5
-4 -2 -2 -5 -2 0 1 1 -0 1 -1 1 0 1 0 -3 -3 1 -2 -2 2 1 -1 -3 -2 -2 2 1 2 3 1 1 -1 2 -2 -2 3 -1 2 6 0 2 7
-4 0 -3 -3 -2 -2 3 -1 0 4 9 5 3 2 0 -6 -4 3 4 8 10 1 1 -1 -1 1 -1 -2 -3 -2 2 -0 -0 -0 -3 -1 2 2 1 5 5 1 0
-5 -1 -2 -1 -1 -0 -2 -10 11 2 2 6 5 10 0 3 2 -0 2 4 1 2 2 3 1 2 -0 1 -1 -2 -1 -0 0 -4 -2 0 -0 0 2 3 6 5 3
-4 -0 -1 -0 -0 -2 -3 -1 -11 -4 9 1 2 1 7 4 3 3 1 5 0 3 1 1 0 1 1 2 2 2 -1 0 -1 -1 -2 -1 -1 1 5 5 1 2 2
0 3 1 -0 -1 -1 0 1 2 -1 -13 -22 3 4 2 2 2 2 1 -0 -2 2 1 1 -0 -1 -1 -1 -1 2 2 -1 1 -1 -1 -0 1 -1 -2 0 3 1 0
-1 1 -1 -0 2 4 2 0 2 0 1 0 -8 1 4 2 -0 2 1 2 1 1 1 1 0 -1 -0 -0 1 2 4 2 -1 -1 2 1 -2 0 1 3 3 5 2
1 4 3 0 -1 -2 1 -1 -2 2 1 1 1 2 -7 -4 -2 -3 0 2 0 0 5 0 -0 0 -0 1 1 2 5 3 2 3 2 2 2 3 2 1 2 -4 2
2 1 3 1 0 0 -1 1 4 -1 2 1 2 3 11 3 1 0 1 1 1 0 3 0 4 1 2 2 2 2 3 2 2 1 1 1 2 -1 3 2 -1 1 -1
2 0 -2 -2 -1 -4 1 4 -0 1 2 2 -0 2 2 1 1 2 2 1 2 2 3 5 2 2 1 2 1 -0 1 0 1 1 1 1 -0 1 1 3 -2 0 0
1 -1 -0 0 -0 0 -1 -1 -0 -0 2 1 4 -0 -1 2 1 0 2 3 3 1 2 3 2 2 4 3 3 4 2 1 1 0 -3 -1 1 0 -1 -2 -1 -3 -1
1 -0 0 1 -5 1 -2 2 -2 4 3 3 1 2 1 2 2 2 1 3 4 3 3 3 4 3 3 3 4 4 4 2 2 4 5 -1 -5 -2 -1 -0 -1 -0 -1
-0 -0 -0 -4 -5 -2 -3 0 -1 3 1 3 1 1 2 2 2 2 2 2 4 2 2 5 5 6 7 6 5 6 7 9 2 -4 -2 1 -1 -0 0 2 -1 -1 -1
-0 1 1 -4 -1 -1 -1 -2 2 1 1 1 2 3 2 1 2 3 3 3 1 3 2 -4 0 3 3 1 2 2 2 3 1 4 1 2 -2 -2 -1 -2 -1 -1 0
Height
1495 1490 1484 1479 1473 1468 1462 1457 1452 1447 1442 1437 1432 1428 1424 1420 1418 1416 1415 1413 1411 1411 1411 1410 1410 1412 1413 1415 1416 1418 1418 1419 1418 1419 1420 1422 1423 1425 1426 1428 1430 1433 1434
1489 1484 1478 1473 1468 1462 1457 1451 1447 1441 1436 1431 1426 1422 1418 1414 1412 1409 1407 1406 1405 1403 1403 1403 1403 1405 1406 1408 1408 1410 1411 1413 1415 1414 1417 1417 1418 1420 1422 1425 1430 1429 1430
1483 1477 1471 1466 1462 1457 1452 1446 1440 1435 1430 1425 1420 1415 1411 1408 1405 1403 1401 1399 1398 1397 1396 1396 1395 1397 1399 1401 1402 1403 1405 1408 1409 1411 1412 1414 1415 1417 1421 1422 1423 1425 1427
1478 1472 1466 1460 1455 1450 1446 1440 1434 1429 1423 1419 1414 1409 1405 1402 1398 1396 1394 1392 1391 1391 1390 1390 1389 1390 1391 1393 1395 1398 1399 1401 1404 1405 1407 1409 1411 1412 1416 1416 1421 1421 1424
1472 1466 1461 1456 1450 1445 1439 1434 1428 1422 1416 1411 1406 1402 1398 1395 1392 1390 1389 1387 1385 1384 1384 1384 1383 1384 1385 1386 1388 1390 1393 1395 1398 1400 1401 1402 1403 1408 1411 1414 1417 1419 1421
1466 1461 1456 1450 1443 1438 1433 1427 1421 1415 1408 1403 1399 1394 1390 1387 1385 1385 1384 1381 1379 1378 1376 1377 1377 1377 1378 1379 1381 1382 1386 1388 1391 1392 1394 1395 1398 1401 1407 1411 1413 1416 1420
1462 1455 1449 1443 1437 1432 1426 1420 1414 1407 1401 1395 1390 1387 1382 1379 1377 1377 1376 1375 1372 1371 1369 1369 1369 1370 1371 1372 1373 1375 1377 1380 1383 1386 1387 1390 1392 1396 1403 1406 1409 1413 1416
1457 1451 1444 1437 1431 1425 1419 1412 1406 1400 1394 1387 1382 1378 1374 1371 1370 1369 1368 1367 1365 1363 1362 1361 1361 1362 1364 1365 1366 1367 1369 1372 1375 1379 1381 1384 1388 1392 1396 1401 1406 1410 1414
1452 1445 1438 1432 1424 1419 1412 1405 1398 1392 1386 1380 1375 1371 1368 1363 1362 1361 1361 1359 1357 1355 1354 1354 1354 1354 1355 1358 1359 1360 1363 1365 1369 1372 1375 1378 1382 1386 1391 1395 1398 1403 1408
1447 1440 1433 1427 1419 1412 1406 1398 1392 1386 1379 1374 1368 1365 1361 1356 1354 1352 1352 1351 1350 1348 1348 1346 1346 1347 1348 1350 1352 1354 1356 1359 1363 1366 1368 1370 1376 1380 1385 1388 1394 1397 1402
1442 1435 1428 1421 1413 1406 1399 1393 1386 1379 1373 1367 1362 1357 1353 1350 1346 1345 1345 1344 1343 1342 1340 1339 1338 1340 1341 1343 1345 1347 1349 1354 1356 1359 1362 1364 1368 1373 1378 1383 1388 1393 1399
1437 1429 1422 1415 1407 1399 1393 1385 1380 1373 1365 1360 1354 1349 1346 1343 1341 1338 1336 1336 1335 1334 1333 1332 1331 1331 1333 1335 1337 1340 1343 1348 1350 1353 1356 1358 1361 1367 1373 1378 1384 1388 1393
1432 1424 1415 1408 1401 1394 1387 1379 1372 1367 1360 1353 1349 1343 1338 1336 1332 1331 1329 1328 1326 1325 1324 1323 1323 1324 1325 1327 1329 1333 1337 1340 1344 1347 1350 1352 1357 1363 1368 1374 1378 1383 1388
1427 1419 1409 1401 1395 1389 1382 1375 1368 1360 1354 1349 1344 1338 1334 1329 1326 1323 1321 1319 1317 1315 1314 1314 1314 1315 1317 1319 1322 1325 1329 1333 1337 1340 1345 1349 1353 1357 1361 1367 1373 1378 1384
1423 1414 1404 1397 1390 1383 1376 1369 1363 1356 1351 1345 1339 1334 1328 1322 1319 1317 1315 1312 1309 1305 1304 1304 1305 1307 1308 1310 1313 1316 1321 1326 1331 1335 1339 1345 1348 1352 1357 1362 1368 1373 1379
1420 1410 1401 1395 1387 1379 1370 1359 1357 1351 1344 1339 1333 1329 1323 1318 1313 1311 1308 1306 1303 1299 1297 1297 1297 1298 1299 1301 1304 1308 1312 1318 1324 1329 1335 1340 1345 1349 1354 1359 1365 1370 1374
1418 1407 1399 1392 1384 1376 1368 1360 1348 1341 1339 1333 1328 1322 1317 1312 1308 1305 1302 1298 1295 1293 1291 1289 1289 1290 1291 1293 1296 1300 1304 1311 1317 1324 1331 1336 1341 1347 1351 1356 1361 1366 1372
1414 1406 1398 1389 1382 1374 1367 1359 1351 1342 1333 1326 1323 1318 1313 1308 1304 1301 1295 1290 1287 1285 1284 1282 1282 1283 1285 1287 1290 1293 1297 1303 1310 1318 1325 1330 1337 1342 1347 1353 1358 1363 1368
1410 1403 1395 1387 1380 1373 1365 1358 1350 1343 1335 1327 1320 1315 1311 1306 1301 1295 1290 1286 1283 1281 1279 1279 1279 1280 1281 1283 1286 1289 1293 1298 1305 1312 1319 1325 1331 1337 1343 1349 1355 1361 1367
1410 1403 1394 1386 1378 1370 1364 1356 1349 1342 1335 1329 1322 1316 1309 1304 1298 1292 1288 1284 1282 1279 1277 1277 1276 1277 1279 1281 1284 1287 1291 1296 1301 1308 1315 1321 1327 1334 1340 1347 1355 1361 1369
1409 1400 1393 1384 1377 1370 1363 1357 1350 1342 1336 1329 1323 1317 1312 1305 1298 1293 1288 1285 1282 1279 1277 1277 1277 1278 1279 1282 1284 1287 1291 1296 1301 1307 1313 1319 1326 1334 1341 1348 1356 1364 1370
1409 1400 1392 1384 1377 1370 1364 1358 1350 1343 1337 1330 1324 1318 1311 1306 1300 1295 1291 1287 1284 1282 1280 1279 1279 1280 1281 1283 1285 1289 1293 1297 1302 1308 1314 1322 1329 1337 1345 1352 1359 1366 1373
1409 1401 1393 1385 1378 1372 1365 1358 1351 1345 1339 1332 1326 1320 1314 1309 1304 1299 1295 1292 1288 1286 1283 1283 1283 1284 1286 1288 1291 1294 1297 1301 1306 1312 1318 1326 1334 1341 1348 1355 1362 1369 1376
1410 1402 1395 1387 1380 1374 1366 1360 1353 1348 1341 1335 1329 1324 1319 1314 1309 1305 1301 1297 1294 1291 1289 1288 1289 1290 1291 1293 1296 1300 1304 1308 1314 1321 1327 1333 1339 1346 1352 1359 1366 1373 1379
1412 1404 1397 1389 1382 1376 1369 1363 1356 1351 1345 1340 1335 1330 1325 1321 1317 1313 1309 1306 1302 1300 1298 1297 1297 1298 1300 1302 1306 1310 1315 1320 1325 1329 1335 1341 1346 1351 1358 1364 1370 1376 1382
1414 1407 1400 1393 1387 1380 1373 1366 1361 1355 1350 1345 1340 1336 1332 1328 1325 1321 1318 1315 1313 1310 1309 1308 1308 1309 1312 1314 1318 1321 1325 1329 1333 1338 1343 1347 1351 1357 1363 1368 1374 1380 1386